Other Public Products
Issued by NWS Charleston, SC

Current Version | Previous Version | Text Only | Print | Product List | Glossary Off
Versions: 1 2 3 4 5 6 7 8 9 10 11 12 13 14 15 16 17 18 19 20 21 22 23 24 25 26 27 28 29 30 31 32 33 34 35 36 37 38 39 40 41 42 43 44 45 46 47 48 49 50

296
FPUS82 KCHS 040112
OPUCHS

TEST...KCHS/KSAV Gateway Observations...TEST
National Weather Service Charleston SC
800 PM EST SAT DEC 03 2016

NOTE: "fair" indicates few or no clouds below 12,000 feet with no
significant weather and/or obstructions to visibility.

SCZ050-WAZ558-NCZ071-TXZ119-213-PAZ071-DCZ001-FLZ074-172-MI076-
NYZ176-178-MAZ016-IL014-TNZ027-NJZ106-GAZ044-MD014-040200-
...Gateway Observations for Charleston International...

CITY           SKY/WX    TMP DP  RH WIND       PRES   REMARKS
Chas Airport   CLOUDY    52  37  56 NE8       30.25R
Seattle        LGT RAIN  46  43  89 S14G22    30.19F
Charlotte      CLOUDY    48  34  58 NE3       30.26R
Dallas DFW     CLOUDY    49  46  90 E15       29.95F
Dallas Love    DRIZZLE   49  47  93 E7        29.98F FOG
Philladelphia  CLOUDY    47  30  51 NW12      30.18R
Wash National  CLOUDY    44  29  55 NW13G22   30.26S
Baltimore      MOCLDY    40  30  67 W8        30.23R WCI  34
Miami          MOCLDY    74  64  71 NE9       30.07R
Detroit        CLOUDY    37  29  72 W5        30.29F WCI  33
Newark         MOCLDY    45  27  49 NW15G25   30.11F
Laguardia      PTCLDY    45  29  53 NW18      30.10F
J F K          PTCLDY    44  26  49 NW23G30   30.10F
Boston Logan   PTCLDY    38  25  59 W18       30.03S WCI  28
Ft. Lauderdale MOCLDY    75  63  66 NE10      30.07R
Chicago O`Hare MOCLDY    31  24  75 S3        30.29F
Chicago Midway MOCLDY    33  23  66 S6        30.31S WCI  28
Houston Bush   CLOUDY    53  51  93 N7        29.90S
Houston Hobby  CLOUDY    55  53  93 N10       29.89S
Nashville      LGT RAIN  42  35  76 E6        30.29R
Atlanta        LGT RAIN  48  45  89 CALM      30.24R

$$

GAZ044-118-TXZ119-213-NCZ071-DCZ001-MDZ014-506-PAZ021-071-NJZ106-
NYZ176-178-MAZ106-OHZ011-021-055-MIZ076-KYZ091-ILZ014-INZ047-
MNZ060-040200-
...Gateway Observations for Savannah International...

CITY           SKY/WX    TMP DP  RH WIND       PRES   REMARKS
Savannah Arpt  CLOUDY    55  41  59 NE7       30.25R
Atlanta        LGT RAIN  48  45  89 CALM      30.24R
Charlotte      CLOUDY    48  34  58 NE3       30.26R
Dallas DFW     CLOUDY    49  46  90 E15       29.95F
Houston Bush   CLOUDY    53  51  93 N7        29.90S
Wash National  CLOUDY    44  29  55 NW13G22   30.26S
Wash Dulles    CLOUDY    41  27  57 NW15G23   30.26S
Baltimore      MOCLDY    40  30  67 W8        30.23R WCI  34
Philadelphia   CLOUDY    47  30  51 NW12      30.18R
Newark         MOCLDY    45  27  49 NW15G25   30.11F
Laguardia      PTCLDY    45  29  53 NW18      30.10F
J F K          PTCLDY    44  26  49 NW23G30   30.10F
Boston         PTCLDY    38  25  59 W18       30.03S WCI  28
Pittsburg      CLOUDY    37  28  70 SW3       30.26F
Akron          CLOUDY    37  25  61 W3        30.29S
Cleveland      CLOUDY    38  26  62 SW6       30.32S WCI  33
Cincinnati     CLOUDY    36  29  75 N7        30.30S WCI  30
Columbus       CLOUDY    37  29  73 CALM      30.31S
Detroit        CLOUDY    37  29  72 W5        30.29F WCI  33
Chicago O`Hare MOCLDY    31  24  75 S3        30.29F
Minneapolis    CLOUDY    31  23  72 SE9       30.20F WCI  23
Indianapolis   CLOUDY    33  27  78 N5        30.31S WCI  29

$$




USA.gov is the U.S. government's official web portal to all federal, state and local government web resources and services.